| time (UTC) | temp C | wind direction | speed KPH | gust KPH | rain 1hr cm | rain 24hr cm | rain mn cm | humidity % | barometer mb |
| 20260505082300 | 16 | 233 | 11.3 | 17.7 | 93.04 | 0.00 | 0.00 | 89 | 1005.0 |
| 20260505081302 | 16 | 236 | 11.3 | 16.1 | 93.04 | 0.00 | 0.00 | 90 | 1005.0 |
| 20260505075304 | 16 | 253 | 14.5 | 22.5 | 93.04 | 0.00 | 0.00 | 90 | 1005.0 |
| 20260505074305 | 16 | 239 | 14.5 | 22.5 | 93.04 | 0.00 | 0.00 | 91 | 1004.9 |
| 20260505073302 | 16 | 240 | 12.9 | 22.5 | 93.04 | 0.00 | 0.00 | 91 | 1004.9 |
| 20260505072308 | 16 | 246 | 12.9 | 20.9 | 93.04 | 0.00 | 0.00 | 92 | 1004.9 |
| 20260505071302 | 16 | 239 | 12.9 | 20.9 | 93.04 | 0.00 | 0.00 | 92 | 1004.9 |
| 20260505070304 | 16 | 232 | 14.5 | 20.9 | 93.04 | 0.00 | 0.00 | 93 | 1004.8 |
| 20260505065303 | 16 | 245 | 12.9 | 19.3 | 93.04 | 0.00 | 0.00 | 92 | 1004.8 |
| 20260505064309 | 16 | 248 | 12.9 | 17.7 | 93.04 | 0.00 | 0.00 | 92 | 1004.8 |
| 20260505063303 | 16 | 236 | 14.5 | 24.1 | 93.04 | 0.00 | 0.00 | 92 | 1004.8 |
| 20260505062301 | 16 | 246 | 12.9 | 17.7 | 93.04 | 0.00 | 0.00 | 93 | 1004.9 |
| 20260505061303 | 16 | 242 | 12.9 | 19.3 | 93.04 | 0.00 | 0.00 | 93 | 1004.8 |
| 20260505060304 | 16 | 242 | 14.5 | 20.9 | 93.04 | 0.00 | 0.00 | 94 | 1004.8 |
| 20260505055303 | 16 | 245 | 14.5 | 20.9 | 93.04 | 0.00 | 0.00 | 93 | 1004.8 |
| 20260505054306 | 16 | 262 | 12.9 | 19.3 | 93.04 | 0.00 | 0.00 | 93 | 1004.9 |
| 20260505052301 | 16 | 236 | 12.9 | 20.9 | 93.04 | 0.00 | 0.00 | 92 | 1004.9 |
| 20260505051303 | 16 | 222 | 12.9 | 20.9 | 93.04 | 0.00 | 0.00 | 91 | 1004.8 |
| 20260505050304 | 16 | 226 | 11.3 | 16.1 | 93.04 | 0.00 | 0.00 | 90 | 1004.9 |
| 20260505041303 | 16 | 239 | 9.7 | 12.9 | 93.04 | 0.00 | 0.00 | 88 | 1004.8 |
| 20260505040306 | 16 | 245 | 9.7 | 12.9 | 93.04 | 0.00 | 0.00 | 88 | 1004.8 |
| 20260505035301 | 16 | 236 | 11.3 | 14.5 | 93.04 | 0.00 | 0.00 | 88 | 1004.7 |
| 20260505034305 | 16 | 249 | 9.7 | 14.5 | 93.04 | 0.00 | 0.00 | 87 | 1004.7 |
| 20260505033305 | 16 | 170 | 8.0 | 16.1 | 93.04 | 0.00 | 0.00 | 87 | 1004.7 |
| 20260505032304 | 16 | 226 | 8.0 | 12.9 | 93.04 | 0.00 | 0.00 | 86 | 1004.7 |
| 20260505031303 | 16 | 231 | 9.7 | 16.1 | 93.04 | 0.00 | 0.00 | 85 | 1004.6 |
| 20260505030302 | 16 | 200 | 8.0 | 12.9 | 93.04 | 0.00 | 0.00 | 85 | 1004.6 |
| 20260505025304 | 16 | 221 | 11.3 | 19.3 | 93.04 | 0.00 | 0.00 | 83 | 1004.6 |
| 20260505024304 | 17 | 219 | 11.3 | 20.9 | 93.04 | 0.00 | 0.00 | 83 | 1004.7 |
| 20260505023303 | 17 | 226 | 12.9 | 19.3 | 93.04 | 0.00 | 0.00 | 81 | 1004.8 |
| 20260505022308 | 16 | 225 | 12.9 | 19.3 | 93.04 | 0.00 | 0.00 | 81 | 1004.7 |
| 20260505021308 | 16 | 198 | 11.3 | 19.3 | 93.04 | 0.00 | 0.00 | 80 | 1004.7 |
| 20260505015303 | 17 | 231 | 8.0 | 12.9 | 93.04 | 0.00 | 0.00 | 77 | 1004.4 |
| 20260505014305 | 17 | 224 | 6.4 | 11.3 | 93.04 | 0.00 | 0.00 | 75 | 1004.5 |
| 20260505013302 | 17 | 203 | 6.4 | 11.3 | 93.04 | 0.00 | 0.00 | 73 | 1004.4 |
| 20260505012301 | 17 | 198 | 6.4 | 9.7 | 93.04 | 0.00 | 0.00 | 72 | 1004.3 |
| 20260505011301 | 17 | 224 | 8.0 | 11.3 | 93.04 | 0.00 | 0.00 | 71 | 1004.3 |
| 20260505010304 | 17 | 246 | 6.4 | 12.9 | 93.04 | 0.00 | 0.00 | 70 | 1004.2 |
| 20260505005304 | 17 | 204 | 6.4 | 9.7 | 93.04 | 0.00 | 0.00 | 69 | 1004.1 |
| 20260505004301 | 18 | 233 | 6.4 | 11.3 | 93.04 | 0.00 | 0.00 | 68 | 1004.0 |
| 20260505003302 | 18 | 210 | 4.8 | 9.7 | 93.04 | 0.00 | 0.00 | 68 | 1003.9 |
| 20260505002301 | 18 | 184 | 6.4 | 12.9 | 93.04 | 0.00 | 0.00 | 67 | 1003.8 |
| 20260505001301 | 18 | 222 | 6.4 | 11.3 | 93.04 | 0.00 | 0.00 | 66 | 1003.9 |
| 20260505000301 | 18 | 225 | 9.7 | 16.1 | 93.04 | 0.00 | 0.00 | 65 | 1003.9 |
| 20260504235301 | 19 | 253 | 9.7 | 14.5 | 93.04 | 0.00 | 0.00 | 65 | 1003.9 |
| 20260504234304 | 19 | 222 | 11.3 | 20.9 | 93.04 | 0.00 | 0.00 | 64 | 1003.8 |
| 20260504233303 | 20 | 229 | 11.3 | 17.7 | 93.04 | 0.00 | 0.00 | 63 | 1003.8 |
| 20260504232304 | 20 | 198 | 14.5 | 20.9 | 93.04 | 0.00 | 0.00 | 61 | 1003.7 |
| 20260504231301 | 20 | 232 | 14.5 | 27.4 | 93.04 | 0.00 | 0.00 | 60 | 1003.6 |
| 20260504230307 | 20 | 221 | 12.9 | 24.1 | 93.04 | 0.00 | 0.00 | 60 | 1003.6 |
| 20260504225304 | 21 | 246 | 19.3 | 27.4 | 93.04 | 0.00 | 0.00 | 56 | 1003.5 |
| 20260504224303 | 21 | 260 | 19.3 | 29.0 | 93.04 | 0.00 | 0.00 | 57 | 1003.4 |
| 20260504223303 | 21 | 239 | 16.1 | 24.1 | 93.04 | 0.00 | 0.00 | 57 | 1003.4 |
| 20260504222304 | 21 | 252 | 19.3 | 27.4 | 93.04 | 0.00 | 0.00 | 60 | 1003.4 |
| 20260504221301 | 20 | 252 | 17.7 | 32.2 | 93.04 | 0.00 | 0.00 | 58 | 1003.5 |
| 20260504220311 | 20 | 245 | 16.1 | 25.7 | 93.04 | 0.00 | 0.00 | 59 | 1003.5 |
| 20260504215302 | 19 | 249 | 14.5 | 20.9 | 93.04 | 0.00 | 0.00 | 59 | 1003.6 |
| 20260504214306 | 20 | 245 | 19.3 | 33.8 | 93.04 | 0.00 | 0.00 | 59 | 1003.7 |
| 20260504213304 | 20 | 252 | 17.7 | 22.5 | 93.04 | 0.00 | 0.00 | 60 | 1003.8 |
| 20260504212304 | 20 | 257 | 16.1 | 27.4 | 93.04 | 0.00 | 0.00 | 60 | 1003.7 |
| 20260504211301 | 20 | 262 | 17.7 | 29.0 | 93.04 | 0.00 | 0.00 | 59 | 1003.8 |
| 20260504210306 | 20 | 277 | 19.3 | 27.4 | 93.04 | 0.00 | 0.00 | 59 | 1003.8 |
| 20260504205301 | 19 | 259 | 19.3 | 27.4 | 93.04 | 0.00 | 0.00 | 60 | 1003.9 |
| 20260504204304 | 19 | 269 | 19.3 | 27.4 | 93.04 | 0.00 | 0.00 | 60 | 1003.8 |
| 20260504203307 | 19 | 240 | 20.9 | 32.2 | 93.04 | 0.00 | 0.00 | 59 | 1004.1 |
| 20260504202307 | 19 | 250 | 19.3 | 30.6 | 93.04 | 0.00 | 0.00 | 60 | 1004.4 |
| 20260504201302 | 19 | 281 | 20.9 | 32.2 | 93.04 | 0.00 | 0.00 | 60 | 1004.4 |
| 20260504200306 | 20 | 283 | 20.9 | 25.7 | 93.04 | 0.00 | 0.00 | 59 | 1004.6 |
| 20260504195304 | 19 | 274 | 22.5 | 35.4 | 93.04 | 0.00 | 0.00 | 60 | 1004.8 |
| 20260504194303 | 19 | 253 | 20.9 | 29.0 | 93.04 | 0.00 | 0.00 | 60 | 1005.0 |
| 20260504193303 | 19 | 256 | 16.1 | 22.5 | 93.04 | 0.00 | 0.00 | 58 | 1005.1 |
| 20260504192304 | 19 | 246 | 19.3 | 25.7 | 93.04 | 0.00 | 0.00 | 62 | 1005.3 |
| 20260504191301 | 18 | 277 | 17.7 | 29.0 | 93.04 | 0.00 | 0.00 | 60 | 1005.2 |
| 20260504190307 | 19 | 255 | 20.9 | 30.6 | 93.04 | 0.00 | 0.00 | 61 | 1005.5 |
| 20260504185301 | 19 | 253 | 14.5 | 25.7 | 93.04 | 0.00 | 0.00 | 62 | 1005.5 |
| 20260504184303 | 18 | 222 | 14.5 | 27.4 | 93.04 | 0.00 | 0.00 | 61 | 1005.7 |
| 20260504183303 | 19 | 259 | 16.1 | 24.1 | 93.04 | 0.00 | 0.00 | 59 | 1005.8 |
| 20260504182304 | 19 | 255 | 16.1 | 22.5 | 93.04 | 0.00 | 0.00 | 60 | 1005.9 |
| 20260504181305 | 19 | 260 | 17.7 | 27.4 | 93.04 | 0.00 | 0.00 | 60 | 1006.2 |
| 20260504180305 | 18 | 239 | 14.5 | 22.5 | 93.04 | 0.00 | 0.00 | 62 | 1006.3 |
| 20260504175304 | 18 | 259 | 16.1 | 24.1 | 93.04 | 0.00 | 0.00 | 61 | 1006.5 |
| 20260504174304 | 18 | 274 | 16.1 | 20.9 | 93.04 | 0.00 | 0.00 | 60 | 1006.3 |
| 20260504173303 | 18 | 263 | 14.5 | 25.7 | 93.04 | 0.00 | 0.00 | 60 | 1006.5 |
| 20260504172312 | 19 | 240 | 14.5 | 22.5 | 93.04 | 0.00 | 0.00 | 63 | 1006.7 |
| 20260504171309 | 18 | 239 | 14.5 | 22.5 | 93.04 | 0.00 | 0.00 | 60 | 1006.9 |
| 20260504170309 | 18 | 281 | 14.5 | 29.0 | 93.04 | 0.00 | 0.00 | 60 | 1007.0 |
| 20260504160306 | 17 | 249 | 14.5 | 20.9 | 93.04 | 0.00 | 0.00 | 66 | 1008.0 |
| 20260504150311 | 16 | 264 | 14.5 | 19.3 | 93.04 | 0.00 | 0.00 | 74 | 1008.6 |
| 20260504141301 | 14 | 248 | 17.7 | 27.4 | 93.04 | 0.00 | 0.00 | 78 | 1008.9 |
| 20260504140307 | 13 | 273 | 17.7 | 22.5 | 93.04 | 0.00 | 0.00 | 78 | 1009.0 |
| 20260504130311 | 13 | 249 | 20.9 | 30.6 | 93.04 | 0.00 | 0.00 | 83 | 1009.3 |
| 20260504110313 | 10 | 257 | 1.6 | 6.4 | 93.04 | 0.00 | 0.00 | 100 | 1010.1 |